Kuchera_Ratio
9.9 6.6 7.1 7.1 5.3 4.0 3.7 2.9 1.3 0.0 0.0 0.0 0.0 0.0 0.0 0.0 0.0 0.0 0.0 0.0 0.0 0.0 0.0 0.0 0.0 0.0 0.0
12.1 11.4 11.2 7.2 6.8 7.5 3.4 0.0 2.4 0.0 0.0 0.0 0.0 0.0 0.0 0.0 0.0 0.0 0.0 0.0 0.0 0.0 0.0 0.0 0.0 0.0 0.0
12.6 12.2 12.0 9.4 11.6 8.2 7.4 5.6 1.0 0.0 0.0 0.0 0.0 0.0 0.0 0.0 0.0 0.0 0.0 0.0 0.0 0.0 0.0 0.0 0.0 0.0 0.0
12.7 12.1 12.5 11.7 12.4 12.5 12.1 8.0 7.9 0.1 0.0 0.0 0.0 0.0 0.0 0.0 0.0 0.0 0.0 0.0 0.0 0.0 0.0 0.0 0.0 0.0 0.0
13.5 13.2 12.7 12.6 13.0 12.2 11.4 10.2 8.7 5.6 5.3 4.3 2.4 2.0 0.6 0.0 0.0 0.0 0.0 0.0 0.0 0.0 0.0 0.0 0.0 0.0 0.0
13.5 13.9 13.2 12.9 12.5 12.2 11.5 12.1 12.9 4.9 9.8 8.7 4.7 5.9 3.2 2.2 0.0 0.0 0.0 0.0 0.0 0.0 0.0 0.0 0.0 0.0 0.0
13.6 13.1 12.9 11.8 11.3 12.1 12.4 12.7 12.7 8.4 10.7 11.0 5.8 8.0 4.5 0.1 0.0 0.0 0.0 0.0 0.0 0.0 0.0 0.0 0.0 0.0 0.0
11.1 12.8 11.6 9.5 9.6 9.3 10.6 10.9 10.8 9.2 7.8 13.3 7.7 8.7 6.0 5.4 0.0 0.0 0.0 0.0 0.0 0.0 0.0 0.0 0.0 0.0 0.0
0.6 0.4 0.0 0.0 0.2 7.0 11.5 12.6 12.8 11.0 8.8 12.3 11.2 10.7 8.7 7.0 5.8 0.0 0.0 0.0 0.0 0.0 0.0 0.0 0.0 0.0 0.0
9.6 8.3 5.1 7.2 1.4 6.1 12.1 13.7 13.5 14.9 8.9 12.6 11.8 12.6 14.4 11.5 7.8 5.9 6.7 2.0 0.0 0.0 0.0 0.0 0.0 1.4 3.3
12.8 12.6 11.6 11.6 10.6 9.6 9.8 11.8 13.5 14.1 8.8 10.8 13.2 13.5 13.8 13.4 12.9 9.7 8.8 8.8 7.8 6.3 2.0 0.5 0.0 0.0 4.5
11.9 12.9 13.0 12.3 12.0 11.0 10.7 10.9 10.7 11.1 9.8 9.6 14.2 13.7 15.5 15.3 15.1 12.6 10.7 10.3 10.1 10.1 8.9 4.7 1.9 0.4 0.0
14.4 13.8 12.9 12.6 12.3 12.9 12.0 12.3 12.4 12.5 8.6 10.9 12.7 14.3 15.3 15.7 15.7 14.7 13.9 12.7 11.5 11.8 11.0 10.5 9.9 8.7 10.5
13.9 13.8 14.3 14.9 14.5 13.9 15.4 14.7 16.0 15.0 12.4 12.4 12.8 13.3 15.9 15.4 14.9 15.2 14.2 15.6 13.9 12.7 12.1 11.3 9.9 8.8 8.9
14.0 14.6 13.9 13.9 13.8 14.1 15.0 15.8 17.1 16.8 16.2 15.1 13.0 13.1 13.5 14.5 15.3 14.0 14.2 14.0 13.0 12.8 12.8 13.2 11.8 10.2 9.6
14.7 15.3 15.5 15.5 15.4 15.0 14.7 16.5 16.8 16.3 16.5 15.9 16.9 16.8 16.0 14.1 10.6 14.3 13.5 13.9 12.9 12.5 12.7 13.8 13.2 10.1 9.3
15.8 16.2 15.5 15.6 14.8 15.8 15.9 15.7 16.3 16.1 16.1 15.9 17.2 18.2 19.1 19.7 14.3 7.4 14.6 13.8 13.4 13.8 13.1 13.3 13.7 12.4 9.6